Year,Month,Day,Hour,Minute,Value (Times are PST for temperature in C)
2021,04,19,00,00,13.70
2021,04,19,00,01,13.70
2021,04,19,00,02,13.70
2021,04,19,00,03,13.70
2021,04,19,00,04,13.70
2021,04,19,00,05,13.70
2021,04,19,00,06,13.70
2021,04,19,00,07,13.60
2021,04,19,00,08,13.60
2021,04,19,00,09,13.50
2021,04,19,00,10,13.50
2021,04,19,00,11,13.40
2021,04,19,00,12,13.40
2021,04,19,00,13,13.30
2021,04,19,00,14,13.30
2021,04,19,00,15,13.30
2021,04,19,00,16,13.30
2021,04,19,00,17,13.30
2021,04,19,00,18,13.20
2021,04,19,00,19,13.20
2021,04,19,00,20,13.20
2021,04,19,00,21,13.20
2021,04,19,00,22,13.10
2021,04,19,00,23,13.10
2021,04,19,00,24,13.10
2021,04,19,00,25,13.10
2021,04,19,00,26,13.00
2021,04,19,00,27,13.00
2021,04,19,00,28,13.00
2021,04,19,00,29,13.10
2021,04,19,00,30,13.10
2021,04,19,00,31,13.10
2021,04,19,00,32,13.10
2021,04,19,00,33,13.10
2021,04,19,00,34,13.10
2021,04,19,00,35,13.00
2021,04,19,00,36,13.00
2021,04,19,00,37,12.90
2021,04,19,00,38,12.90
2021,04,19,00,39,12.80
2021,04,19,00,40,12.80
2021,04,19,00,41,12.70
2021,04,19,00,42,12.70
2021,04,19,00,43,12.60
2021,04,19,00,44,12.50
2021,04,19,00,45,12.50
2021,04,19,00,46,12.40
2021,04,19,00,47,12.40
2021,04,19,00,48,12.30
2021,04,19,00,49,12.20
2021,04,19,00,50,12.20
2021,04,19,00,51,12.10
2021,04,19,00,52,12.10
2021,04,19,00,53,12.00
2021,04,19,00,54,12.00
2021,04,19,00,55,11.90
2021,04,19,00,56,11.90
2021,04,19,00,57,11.90
2021,04,19,00,58,11.80
2021,04,19,00,59,11.80
2021,04,19,01,00,11.80
2021,04,19,01,01,11.80
2021,04,19,01,02,11.70
2021,04,19,01,03,11.60
2021,04,19,01,04,11.50
2021,04,19,01,05,11.50
2021,04,19,01,06,11.40
2021,04,19,01,07,11.30
2021,04,19,01,08,11.20
2021,04,19,01,09,11.10
2021,04,19,01,10,11.10
2021,04,19,01,11,11.10
2021,04,19,01,12,11.10
2021,04,19,01,13,11.10
2021,04,19,01,14,11.20
2021,04,19,01,15,11.20
2021,04,19,01,16,11.20
2021,04,19,01,17,11.20
2021,04,19,01,18,11.20
2021,04,19,01,19,11.20
2021,04,19,01,20,11.20
2021,04,19,01,21,11.20
2021,04,19,01,22,11.20
2021,04,19,01,23,11.20
2021,04,19,01,24,11.10
2021,04,19,01,25,11.00
2021,04,19,01,26,11.00
2021,04,19,01,27,11.00
2021,04,19,01,28,11.00
2021,04,19,01,29,11.00
2021,04,19,01,30,11.00
2021,04,19,01,31,11.00
2021,04,19,01,32,10.90
2021,04,19,01,33,10.90
2021,04,19,01,34,10.80
2021,04,19,01,35,10.80
2021,04,19,01,36,10.80
2021,04,19,01,37,10.80
2021,04,19,01,38,10.80
2021,04,19,01,39,10.70
2021,04,19,01,40,10.70
2021,04,19,01,41,10.70
2021,04,19,01,42,10.70
2021,04,19,01,43,10.70
2021,04,19,01,44,10.60
2021,04,19,01,45,10.60
2021,04,19,01,46,10.60
2021,04,19,01,47,10.60
2021,04,19,01,48,10.60
2021,04,19,01,49,10.50
2021,04,19,01,50,10.50
2021,04,19,01,51,10.40
2021,04,19,01,52,10.40
2021,04,19,01,53,10.30
2021,04,19,01,54,10.30
2021,04,19,01,55,10.20
2021,04,19,01,56,10.20
2021,04,19,01,57,10.10
2021,04,19,01,58,10.10
2021,04,19,01,59,10.10
2021,04,19,02,00,10.10
2021,04,19,02,01,10.00
2021,04,19,02,02,10.00
2021,04,19,02,03,10.00
2021,04,19,02,04,9.90
2021,04,19,02,05,9.90
2021,04,19,02,06,9.90
2021,04,19,02,07,9.90
2021,04,19,02,08,9.80
2021,04,19,02,09,9.80
2021,04,19,02,10,9.70
2021,04,19,02,11,9.70
2021,04,19,02,12,9.70
2021,04,19,02,13,9.60
2021,04,19,02,14,9.60
2021,04,19,02,15,9.50
2021,04,19,02,16,9.50
2021,04,19,02,17,9.50
2021,04,19,02,18,9.40
2021,04,19,02,19,9.40
2021,04,19,02,20,9.40
2021,04,19,02,21,9.30
2021,04,19,02,22,9.30
2021,04,19,02,23,9.30
2021,04,19,02,24,9.20
2021,04,19,02,25,9.20
2021,04,19,02,26,9.20
2021,04,19,02,27,9.10
2021,04,19,02,28,9.10
2021,04,19,02,29,9.10
2021,04,19,02,30,9.10
2021,04,19,02,31,9.10
2021,04,19,02,32,9.10
2021,04,19,02,33,9.10
2021,04,19,02,34,9.10
2021,04,19,02,35,9.00
2021,04,19,02,36,9.00
2021,04,19,02,37,9.00
2021,04,19,02,38,8.90
2021,04,19,02,39,8.90
2021,04,19,02,40,8.90
2021,04,19,02,41,8.90
2021,04,19,02,42,8.90
2021,04,19,02,43,8.90
2021,04,19,02,44,8.80
2021,04,19,02,45,8.80
2021,04,19,02,46,8.80
2021,04,19,02,47,8.80
2021,04,19,02,48,8.80
2021,04,19,02,49,8.80
2021,04,19,02,50,8.80
2021,04,19,02,51,8.80
2021,04,19,02,52,8.80
2021,04,19,02,53,8.80
2021,04,19,02,54,8.80
2021,04,19,02,55,8.80
2021,04,19,02,56,8.80
2021,04,19,02,57,8.70
2021,04,19,02,58,8.70
2021,04,19,02,59,8.70
2021,04,19,03,00,8.70
2021,04,19,03,01,8.70
2021,04,19,03,02,8.70
2021,04,19,03,03,8.60
2021,04,19,03,04,8.60
2021,04,19,03,05,8.60
2021,04,19,03,06,8.60
2021,04,19,03,07,8.60
2021,04,19,03,08,8.70
2021,04,19,03,09,8.70
2021,04,19,03,10,8.70
2021,04,19,03,11,8.70
2021,04,19,03,12,8.70
2021,04,19,03,13,8.70
2021,04,19,03,14,8.70
2021,04,19,03,15,8.70
2021,04,19,03,16,8.70
2021,04,19,03,17,8.70
2021,04,19,03,18,8.60
2021,04,19,03,19,8.60
2021,04,19,03,20,8.60
2021,04,19,03,21,8.60
2021,04,19,03,22,8.60
2021,04,19,03,23,8.50
2021,04,19,03,24,8.50
2021,04,19,03,25,8.50
2021,04,19,03,26,8.50
2021,04,19,03,27,8.50
2021,04,19,03,28,8.40
2021,04,19,03,29,8.40
2021,04,19,03,30,8.40
2021,04,19,03,31,8.40
2021,04,19,03,32,8.30
2021,04,19,03,33,8.30
2021,04,19,03,34,8.30
2021,04,19,03,35,8.30
2021,04,19,03,36,8.20
2021,04,19,03,37,8.10
2021,04,19,03,38,8.00
2021,04,19,03,39,8.00
2021,04,19,03,40,7.90
2021,04,19,03,41,7.90
2021,04,19,03,42,7.90
2021,04,19,03,43,7.90
2021,04,19,03,44,7.80
2021,04,19,03,45,7.90
2021,04,19,03,46,7.90
2021,04,19,03,47,7.90
2021,04,19,03,48,7.90
2021,04,19,03,49,7.80
2021,04,19,03,50,7.80
2021,04,19,03,51,7.80
2021,04,19,03,52,7.80
2021,04,19,03,53,7.80
2021,04,19,03,54,7.70
2021,04,19,03,55,7.70
2021,04,19,03,56,7.70
2021,04,19,03,57,7.70
2021,04,19,03,58,7.70
2021,04,19,03,59,7.70
2021,04,19,04,00,7.70
2021,04,19,04,01,7.70
2021,04,19,04,02,7.70
2021,04,19,04,03,7.70
2021,04,19,04,04,7.70
2021,04,19,04,05,7.70
2021,04,19,04,06,7.70
2021,04,19,04,07,7.70
2021,04,19,04,08,7.60
2021,04,19,04,09,7.60
2021,04,19,04,10,7.60
2021,04,19,04,11,7.60
2021,04,19,04,12,7.60
2021,04,19,04,13,7.60
2021,04,19,04,14,7.60
2021,04,19,04,15,7.50
2021,04,19,04,16,7.50
2021,04,19,04,17,7.50
2021,04,19,04,18,7.50
2021,04,19,04,19,7.50
2021,04,19,04,20,7.50
2021,04,19,04,21,7.40
2021,04,19,04,22,7.40
2021,04,19,04,23,7.40
2021,04,19,04,24,7.40
2021,04,19,04,25,7.40
2021,04,19,04,26,7.40
2021,04,19,04,27,7.40
2021,04,19,04,28,7.40
2021,04,19,04,29,7.40
2021,04,19,04,30,7.40
2021,04,19,04,31,7.40
2021,04,19,04,32,7.40
2021,04,19,04,33,7.40
2021,04,19,04,34,7.40
2021,04,19,04,35,7.40
2021,04,19,04,36,7.40
2021,04,19,04,37,7.40
2021,04,19,04,38,7.40
2021,04,19,04,39,7.40
2021,04,19,04,40,7.40
2021,04,19,04,41,7.40
2021,04,19,04,42,7.40
2021,04,19,04,43,7.40
2021,04,19,04,44,7.40
2021,04,19,04,45,7.40
2021,04,19,04,46,7.40
2021,04,19,04,47,7.40
2021,04,19,04,48,7.40
2021,04,19,04,49,7.40
2021,04,19,04,50,7.40
2021,04,19,04,51,7.40
2021,04,19,04,52,7.40
2021,04,19,04,53,7.30
2021,04,19,04,54,7.40
2021,04,19,04,55,7.40
2021,04,19,04,56,7.40
2021,04,19,04,57,7.40
2021,04,19,04,58,7.40
2021,04,19,04,59,7.30
2021,04,19,05,00,7.40
2021,04,19,05,01,7.40
2021,04,19,05,02,7.40
2021,04,19,05,03,7.40
2021,04,19,05,04,7.40
2021,04,19,05,05,7.40
2021,04,19,05,06,7.40
2021,04,19,05,07,7.40
2021,04,19,05,08,7.40
2021,04,19,05,09,7.40
2021,04,19,05,10,7.40
2021,04,19,05,11,7.30
2021,04,19,05,12,7.30
2021,04,19,05,13,7.30
2021,04,19,05,14,7.30
2021,04,19,05,15,7.30
2021,04,19,05,16,7.30
2021,04,19,05,17,7.30
2021,04,19,05,18,7.30
2021,04,19,05,19,7.40
2021,04,19,05,20,7.40
2021,04,19,05,21,7.40
2021,04,19,05,22,7.40
2021,04,19,05,23,7.40
2021,04,19,05,24,7.40
2021,04,19,05,25,7.40
2021,04,19,05,26,7.40
2021,04,19,05,27,7.40
2021,04,19,05,28,7.40
2021,04,19,05,29,7.40
2021,04,19,05,30,7.50
2021,04,19,05,31,7.40
2021,04,19,05,32,7.40
2021,04,19,05,33,7.40
2021,04,19,05,34,7.40
2021,04,19,05,35,7.40
2021,04,19,05,36,7.40
2021,04,19,05,37,7.40
2021,04,19,05,38,7.40
2021,04,19,05,39,7.30
2021,04,19,05,40,7.30
2021,04,19,05,41,7.40
2021,04,19,05,42,7.60
2021,04,19,05,43,7.90
2021,04,19,05,44,8.20
2021,04,19,05,45,8.50
2021,04,19,05,46,8.70
2021,04,19,05,47,8.80
2021,04,19,05,48,8.80
2021,04,19,05,49,8.90
2021,04,19,05,50,8.90
2021,04,19,05,51,8.80
2021,04,19,05,52,8.80
2021,04,19,05,53,8.80
2021,04,19,05,54,8.60
2021,04,19,05,55,8.40
2021,04,19,05,56,8.30
2021,04,19,05,57,8.10
2021,04,19,05,58,8.00
2021,04,19,05,59,7.80
2021,04,19,06,00,7.70
2021,04,19,06,01,7.70
2021,04,19,06,02,7.60
2021,04,19,06,03,7.60
2021,04,19,06,04,7.60
2021,04,19,06,05,7.50
2021,04,19,06,06,7.60
2021,04,19,06,07,7.60
2021,04,19,06,08,7.70
2021,04,19,06,09,7.70
2021,04,19,06,10,7.80
2021,04,19,06,11,7.90
2021,04,19,06,12,8.00
2021,04,19,06,13,8.00
2021,04,19,06,14,8.00
2021,04,19,06,15,8.10
2021,04,19,06,16,8.10
2021,04,19,06,17,8.10
2021,04,19,06,18,8.10
2021,04,19,06,19,8.10
2021,04,19,06,20,8.10
2021,04,19,06,21,8.20
2021,04,19,06,22,8.20
2021,04,19,06,23,8.20
2021,04,19,06,24,8.20
2021,04,19,06,25,8.20
2021,04,19,06,26,8.20
2021,04,19,06,27,8.20
2021,04,19,06,28,8.20
2021,04,19,06,29,8.20
2021,04,19,06,30,8.30
2021,04,19,06,31,8.30
2021,04,19,06,32,8.30
2021,04,19,06,33,8.30
2021,04,19,06,34,8.30
2021,04,19,06,35,8.30
2021,04,19,06,36,8.30
2021,04,19,06,37,8.30
2021,04,19,06,38,8.30
2021,04,19,06,39,8.30
2021,04,19,06,40,8.30
2021,04,19,06,41,8.30
2021,04,19,06,42,8.30
2021,04,19,06,43,8.30
2021,04,19,06,44,8.30
2021,04,19,06,45,8.30
2021,04,19,06,46,8.30
2021,04,19,06,47,8.40
2021,04,19,06,48,8.50
2021,04,19,06,49,8.50
2021,04,19,06,50,8.60
2021,04,19,06,51,8.60
2021,04,19,06,52,8.60
2021,04,19,06,53,8.60
2021,04,19,06,54,8.60
2021,04,19,06,55,8.60
2021,04,19,06,56,8.60
2021,04,19,06,57,8.60
2021,04,19,06,58,8.70
2021,04,19,06,59,8.70
2021,04,19,07,00,8.70
2021,04,19,07,01,8.70
2021,04,19,07,02,8.70
2021,04,19,07,03,8.70
2021,04,19,07,04,8.80
2021,04,19,07,05,8.80
2021,04,19,07,06,8.90
2021,04,19,07,07,8.90
2021,04,19,07,08,9.00
2021,04,19,07,09,9.00
2021,04,19,07,10,9.10
2021,04,19,07,11,9.10
2021,04,19,07,12,9.20
2021,04,19,07,13,9.20
2021,04,19,07,14,9.20
2021,04,19,07,15,9.30
2021,04,19,07,16,9.30
2021,04,19,07,17,9.30
2021,04,19,07,18,9.30
2021,04,19,07,19,9.30
2021,04,19,07,20,9.40
2021,04,19,07,21,9.40
2021,04,19,07,22,9.50
2021,04,19,07,23,9.60
2021,04,19,07,24,9.60
2021,04,19,07,25,9.70
2021,04,19,07,26,9.70
2021,04,19,07,27,9.80
2021,04,19,07,28,9.90
2021,04,19,07,29,9.90
2021,04,19,07,30,10.00
2021,04,19,07,31,10.00
2021,04,19,07,32,10.10
2021,04,19,07,33,10.10
2021,04,19,07,34,10.20
2021,04,19,07,35,10.30
2021,04,19,07,36,10.40
2021,04,19,07,37,10.50
2021,04,19,07,38,10.50
2021,04,19,07,39,10.60
2021,04,19,07,40,10.70
2021,04,19,07,41,10.70
2021,04,19,07,42,10.80
2021,04,19,07,43,10.90
2021,04,19,07,44,11.00
2021,04,19,07,45,11.20
2021,04,19,07,46,11.20
2021,04,19,07,47,11.30
2021,04,19,07,48,11.40
2021,04,19,07,49,11.40
2021,04,19,07,50,11.50
2021,04,19,07,51,11.70
2021,04,19,07,52,11.90
2021,04,19,07,53,12.20
2021,04,19,07,54,12.60
2021,04,19,07,55,12.70
2021,04,19,07,56,12.80
2021,04,19,07,57,12.80
2021,04,19,07,58,12.70
2021,04,19,07,59,12.50
2021,04,19,08,00,12.40
2021,04,19,08,01,12.40
2021,04,19,08,02,12.30
2021,04,19,08,03,12.30
2021,04,19,08,04,12.40
2021,04,19,08,05,12.80
2021,04,19,08,06,13.30
2021,04,19,08,07,13.80
2021,04,19,08,08,14.00
2021,04,19,08,09,13.90
2021,04,19,08,10,13.80
2021,04,19,08,11,13.60
2021,04,19,08,12,13.40
2021,04,19,08,13,13.20
2021,04,19,08,14,13.20
2021,04,19,08,15,13.50
2021,04,19,08,16,14.00
2021,04,19,08,17,14.50
2021,04,19,08,18,14.90
2021,04,19,08,19,15.20
2021,04,19,08,20,15.50
2021,04,19,08,21,15.80
2021,04,19,08,22,16.00
2021,04,19,08,23,16.20
2021,04,19,08,24,16.30
2021,04,19,08,25,16.40
2021,04,19,08,26,16.50
2021,04,19,08,27,16.60
2021,04,19,08,28,16.70
2021,04,19,08,29,16.80
2021,04,19,08,30,16.80
2021,04,19,08,31,16.90
2021,04,19,08,32,16.90
2021,04,19,08,33,17.00
2021,04,19,08,34,17.00
2021,04,19,08,35,17.00
2021,04,19,08,36,17.00
2021,04,19,08,37,17.10
2021,04,19,08,38,17.10
2021,04,19,08,39,17.10
2021,04,19,08,40,17.20
2021,04,19,08,41,17.20
2021,04,19,08,42,17.20
2021,04,19,08,43,17.20
2021,04,19,08,44,17.30
2021,04,19,08,45,17.20
2021,04,19,08,46,17.30
2021,04,19,08,47,17.30
2021,04,19,08,48,17.30
2021,04,19,08,49,17.30
2021,04,19,08,50,17.30
2021,04,19,08,51,17.40
2021,04,19,08,52,17.40
2021,04,19,08,53,17.40
2021,04,19,08,54,17.50
2021,04,19,08,55,17.50
2021,04,19,08,56,17.60
2021,04,19,08,57,17.70
2021,04,19,08,58,17.70
2021,04,19,08,59,17.70
2021,04,19,09,00,17.70
2021,04,19,09,01,17.70
2021,04,19,09,02,17.70
2021,04,19,09,03,17.70
2021,04,19,09,04,17.70
2021,04,19,09,05,17.70
2021,04,19,09,06,17.70
2021,04,19,09,07,17.70
2021,04,19,09,08,17.70
2021,04,19,09,09,17.80
2021,04,19,09,10,17.80
2021,04,19,09,11,17.80
2021,04,19,09,12,17.70
2021,04,19,09,13,17.80
2021,04,19,09,14,17.70
2021,04,19,09,15,17.70
2021,04,19,09,16,17.70
2021,04,19,09,17,17.70
2021,04,19,09,18,17.70
2021,04,19,09,19,17.70
2021,04,19,09,20,17.70
2021,04,19,09,21,17.70
2021,04,19,09,22,17.80
2021,04,19,09,23,17.80
2021,04,19,09,24,17.80
2021,04,19,09,25,17.90
2021,04,19,09,26,17.90
2021,04,19,09,27,17.90
2021,04,19,09,28,17.80
2021,04,19,09,29,17.90
2021,04,19,09,30,17.90
2021,04,19,09,31,17.90
2021,04,19,09,32,17.90
2021,04,19,09,33,17.90
2021,04,19,09,34,18.00
2021,04,19,09,35,18.00
2021,04,19,09,36,18.10
2021,04,19,09,37,18.10
2021,04,19,09,38,18.10
2021,04,19,09,39,18.10
2021,04,19,09,40,18.00
2021,04,19,09,41,18.10
2021,04,19,09,42,18.00
2021,04,19,09,43,18.00
2021,04,19,09,44,18.10
2021,04,19,09,45,18.20
2021,04,19,09,46,18.30
2021,04,19,09,47,18.30
2021,04,19,09,48,18.40
2021,04,19,09,49,18.50
2021,04,19,09,50,18.50
2021,04,19,09,51,18.50
2021,04,19,09,52,18.50
2021,04,19,09,53,18.40
2021,04,19,09,54,18.30
2021,04,19,09,55,18.20
2021,04,19,09,56,18.20
2021,04,19,09,57,18.30
2021,04,19,09,58,18.30
2021,04,19,09,59,18.40
2021,04,19,10,00,18.40
2021,04,19,10,01,18.40
2021,04,19,10,02,18.40
2021,04,19,10,03,18.40
2021,04,19,10,04,18.40
2021,04,19,10,05,18.40
2021,04,19,10,06,18.40
2021,04,19,10,07,18.40
2021,04,19,10,08,18.30
2021,04,19,10,09,18.30
2021,04,19,10,10,18.20
2021,04,19,10,11,18.20
2021,04,19,10,12,18.20
2021,04,19,10,13,18.30
2021,04,19,10,14,18.40
2021,04,19,10,15,18.30
2021,04,19,10,16,18.30
2021,04,19,10,17,18.30
2021,04,19,10,18,18.30
2021,04,19,10,19,18.30
2021,04,19,10,20,18.30
2021,04,19,10,21,18.40
2021,04,19,10,22,18.40
2021,04,19,10,23,18.40
2021,04,19,10,24,18.50
2021,04,19,10,25,18.50
2021,04,19,10,26,18.60
2021,04,19,10,27,18.50
2021,04,19,10,28,18.40
2021,04,19,10,29,18.30
2021,04,19,10,30,18.20
2021,04,19,10,31,18.20
2021,04,19,10,32,18.20
2021,04,19,10,33,18.20
2021,04,19,10,34,18.30
2021,04,19,10,35,18.30
2021,04,19,10,36,18.40
2021,04,19,10,37,18.40
2021,04,19,10,38,18.40
2021,04,19,10,39,18.40
2021,04,19,10,40,18.30
2021,04,19,10,41,18.20
2021,04,19,10,42,18.20
2021,04,19,10,43,18.20
2021,04,19,10,44,18.30
2021,04,19,10,45,18.30
2021,04,19,10,46,18.40
2021,04,19,10,47,18.40
2021,04,19,10,48,18.50
2021,04,19,10,49,18.50
2021,04,19,10,50,18.60
2021,04,19,10,51,18.60
2021,04,19,10,52,18.70
2021,04,19,10,53,18.70
2021,04,19,10,54,18.70
2021,04,19,10,55,18.70
2021,04,19,10,56,18.70
2021,04,19,10,57,18.60
2021,04,19,10,58,18.60
2021,04,19,10,59,18.60
2021,04,19,11,00,18.60
2021,04,19,11,01,18.60
2021,04,19,11,02,18.50
2021,04,19,11,03,18.50
2021,04,19,11,04,18.40
2021,04,19,11,05,18.40
2021,04,19,11,06,18.40
2021,04,19,11,07,18.50
2021,04,19,11,08,18.50
2021,04,19,11,09,18.60
2021,04,19,11,10,18.70
2021,04,19,11,11,18.80
2021,04,19,11,12,18.80
2021,04,19,11,13,18.70
2021,04,19,11,14,18.70
2021,04,19,11,15,18.60
2021,04,19,11,16,18.50
2021,04,19,11,17,18.50
2021,04,19,11,18,18.60
2021,04,19,11,19,18.50
2021,04,19,11,20,18.50
2021,04,19,11,21,18.60
2021,04,19,11,22,18.60
2021,04,19,11,23,18.60
2021,04,19,11,24,18.70
2021,04,19,11,25,18.60
2021,04,19,11,26,18.60
2021,04,19,11,27,18.70
2021,04,19,11,28,18.70
2021,04,19,11,29,18.70
2021,04,19,11,30,18.80
2021,04,19,11,31,18.80
2021,04,19,11,32,18.80
2021,04,19,11,33,18.70
2021,04,19,11,34,18.60
2021,04,19,11,35,18.60
2021,04,19,11,36,18.60
2021,04,19,11,37,18.70
2021,04,19,11,38,18.60
2021,04,19,11,39,18.70
2021,04,19,11,40,18.70
2021,04,19,11,41,18.70
2021,04,19,11,42,18.80
2021,04,19,11,43,18.90
2021,04,19,11,44,19.00
2021,04,19,11,45,18.90
2021,04,19,11,46,18.90
2021,04,19,11,47,18.80
2021,04,19,11,48,18.70
2021,04,19,11,49,18.80
2021,04,19,11,50,18.90
2021,04,19,11,51,18.90
2021,04,19,11,52,18.80
2021,04,19,11,53,18.80
2021,04,19,11,54,18.90
2021,04,19,11,55,18.90
2021,04,19,11,56,18.80
2021,04,19,11,57,18.80
2021,04,19,11,58,18.80
2021,04,19,11,59,18.80
2021,04,19,12,00,18.70
2021,04,19,12,01,18.70
2021,04,19,12,02,18.80
2021,04,19,12,03,18.80
2021,04,19,12,04,18.80
2021,04,19,12,05,18.90
2021,04,19,12,06,18.90
2021,04,19,12,07,18.90
2021,04,19,12,08,19.00
2021,04,19,12,09,18.90
2021,04,19,12,10,18.90
2021,04,19,12,11,19.00
2021,04,19,12,12,19.00
2021,04,19,12,13,19.00
2021,04,19,12,14,18.90
2021,04,19,12,15,18.90
2021,04,19,12,16,19.00
2021,04,19,12,17,19.10
2021,04,19,12,18,19.20
2021,04,19,12,19,19.20
2021,04,19,12,20,19.30
2021,04,19,12,21,19.30
2021,04,19,12,22,19.30
2021,04,19,12,23,19.20
2021,04,19,12,24,19.20
2021,04,19,12,25,19.20
2021,04,19,12,26,19.20
2021,04,19,12,27,19.20
2021,04,19,12,28,19.10
2021,04,19,12,29,19.20
2021,04,19,12,30,19.20
2021,04,19,12,31,19.30
2021,04,19,12,32,19.40
2021,04,19,12,33,19.50
2021,04,19,12,34,19.60
2021,04,19,12,35,19.60
2021,04,19,12,36,19.60
2021,04,19,12,37,19.70
2021,04,19,12,38,19.70
2021,04,19,12,39,19.70
2021,04,19,12,40,19.60
2021,04,19,12,41,19.50
2021,04,19,12,42,19.30
2021,04,19,12,43,19.30
2021,04,19,12,44,19.40
2021,04,19,12,45,19.40
2021,04,19,12,46,19.40
2021,04,19,12,47,19.50
2021,04,19,12,48,19.50
2021,04,19,12,49,19.60
2021,04,19,12,50,19.70
2021,04,19,12,51,19.80
2021,04,19,12,52,19.90
2021,04,19,12,53,20.00
2021,04,19,12,54,20.00
2021,04,19,12,55,20.00
2021,04,19,12,56,19.90
2021,04,19,12,57,19.80
2021,04,19,12,58,19.70
2021,04,19,12,59,19.60
2021,04,19,13,00,19.70
2021,04,19,13,01,19.80
2021,04,19,13,02,19.90
2021,04,19,13,03,20.00
2021,04,19,13,04,20.00
2021,04,19,13,05,20.00
2021,04,19,13,06,20.10
2021,04,19,13,07,20.00
2021,04,19,13,08,20.00
2021,04,19,13,09,20.10
2021,04,19,13,10,20.00
2021,04,19,13,11,20.00
2021,04,19,13,12,19.90
2021,04,19,13,13,20.00
2021,04,19,13,14,20.10
2021,04,19,13,15,20.30
2021,04,19,13,16,20.30
2021,04,19,13,17,20.30
2021,04,19,13,18,20.20
2021,04,19,13,19,20.10
2021,04,19,13,20,19.90
2021,04,19,13,21,19.90
2021,04,19,13,22,19.90
2021,04,19,13,23,20.00
2021,04,19,13,24,20.00
2021,04,19,13,25,20.10
2021,04,19,13,26,20.20
2021,04,19,13,27,20.30
2021,04,19,13,28,20.30
2021,04,19,13,29,20.30
2021,04,19,13,30,20.30
2021,04,19,13,31,20.30
2021,04,19,13,32,20.30
2021,04,19,13,33,20.30
2021,04,19,13,34,20.30
2021,04,19,13,35,20.30
2021,04,19,13,36,20.20
2021,04,19,13,37,20.00
2021,04,19,13,38,19.90
2021,04,19,13,39,19.80
2021,04,19,13,40,19.80
2021,04,19,13,41,19.90
2021,04,19,13,42,20.00
2021,04,19,13,43,19.90
2021,04,19,13,44,19.80
2021,04,19,13,45,19.90
2021,04,19,13,46,19.90
2021,04,19,13,47,20.00
2021,04,19,13,48,20.20
2021,04,19,13,49,20.30
2021,04,19,13,50,20.40
2021,04,19,13,51,20.40
2021,04,19,13,52,20.30
2021,04,19,13,53,20.40
2021,04,19,13,54,20.40
2021,04,19,13,55,20.50
2021,04,19,13,56,20.70
2021,04,19,13,57,20.80
2021,04,19,13,58,20.80
2021,04,19,13,59,20.90
2021,04,19,14,00,20.80
2021,04,19,14,01,20.80
2021,04,19,14,02,20.80
2021,04,19,14,03,20.80
2021,04,19,14,04,20.80
2021,04,19,14,05,20.90
2021,04,19,14,06,21.00
2021,04,19,14,07,21.10
2021,04,19,14,08,21.10
2021,04,19,14,09,21.00
2021,04,19,14,10,20.90
2021,04,19,14,11,20.90
2021,04,19,14,12,21.00
2021,04,19,14,13,21.00
2021,04,19,14,14,20.90
2021,04,19,14,15,20.80
2021,04,19,14,16,20.70
2021,04,19,14,17,20.60
2021,04,19,14,18,20.40
2021,04,19,14,19,20.30
2021,04,19,14,20,20.20
2021,04,19,14,21,20.10
2021,04,19,14,22,19.90
2021,04,19,14,23,19.70
2021,04,19,14,24,19.60
2021,04,19,14,25,19.40
2021,04,19,14,26,19.30
2021,04,19,14,27,19.30
2021,04,19,14,28,19.30
2021,04,19,14,29,19.30
2021,04,19,14,30,19.40
2021,04,19,14,31,19.60
2021,04,19,14,32,19.70
2021,04,19,14,33,19.70
2021,04,19,14,34,19.80
2021,04,19,14,35,19.80
2021,04,19,14,36,19.80
2021,04,19,14,37,19.50
2021,04,19,14,38,19.20
2021,04,19,14,39,18.80
2021,04,19,14,40,18.60
2021,04,19,14,41,18.40
2021,04,19,14,42,18.30
2021,04,19,14,43,18.30
2021,04,19,14,44,18.30
2021,04,19,14,45,18.20
2021,04,19,14,46,18.30
2021,04,19,14,47,18.20
2021,04,19,14,48,18.20
2021,04,19,14,49,18.20
2021,04,19,14,50,18.20
2021,04,19,14,51,18.20
2021,04,19,14,52,18.30
2021,04,19,14,53,18.40
2021,04,19,14,54,18.60
2021,04,19,14,55,18.70
2021,04,19,14,56,18.70
2021,04,19,14,57,18.70
2021,04,19,14,58,18.60
2021,04,19,14,59,18.50
2021,04,19,15,00,18.30
2021,04,19,15,01,18.30
2021,04,19,15,02,18.30
2021,04,19,15,03,18.40
2021,04,19,15,04,18.50
2021,04,19,15,05,18.60
2021,04,19,15,06,18.70
2021,04,19,15,07,18.80
2021,04,19,15,08,18.70
2021,04,19,15,09,18.60
2021,04,19,15,10,18.60
2021,04,19,15,11,18.50
2021,04,19,15,12,18.40
2021,04,19,15,13,18.20
2021,04,19,15,14,18.10
2021,04,19,15,15,17.90
2021,04,19,15,16,17.80
2021,04,19,15,17,17.80
2021,04,19,15,18,17.80
2021,04,19,15,19,17.60
2021,04,19,15,20,17.60
2021,04,19,15,21,17.40
2021,04,19,15,22,17.10
2021,04,19,15,23,16.80
2021,04,19,15,24,16.50
2021,04,19,15,25,16.20
2021,04,19,15,26,15.90
2021,04,19,15,27,15.80
2021,04,19,15,28,15.70
2021,04,19,15,29,15.70
2021,04,19,15,30,15.70
2021,04,19,15,31,15.70
2021,04,19,15,32,15.80
2021,04,19,15,33,15.80
2021,04,19,15,34,15.80
2021,04,19,15,35,15.80
2021,04,19,15,36,15.80
2021,04,19,15,37,15.80
2021,04,19,15,38,15.80
2021,04,19,15,39,15.80
2021,04,19,15,40,15.80
2021,04,19,15,41,15.70
2021,04,19,15,42,15.70
2021,04,19,15,43,15.70
2021,04,19,15,44,15.70
2021,04,19,15,45,15.80
2021,04,19,15,46,15.90
2021,04,19,15,47,16.20
2021,04,19,15,48,16.30
2021,04,19,15,49,16.30
2021,04,19,15,50,16.40
2021,04,19,15,51,16.40
2021,04,19,15,52,16.50
2021,04,19,15,53,16.50
2021,04,19,15,54,16.40
2021,04,19,15,55,16.20
2021,04,19,15,56,16.20
2021,04,19,15,57,16.10
2021,04,19,15,58,16.00
2021,04,19,15,59,16.00
2021,04,19,16,00,15.90
2021,04,19,16,01,15.90
2021,04,19,16,02,15.90
2021,04,19,16,03,15.90
2021,04,19,16,04,16.00
2021,04,19,16,05,16.10
2021,04,19,16,06,16.20
2021,04,19,16,07,16.30
2021,04,19,16,08,16.30
2021,04,19,16,09,16.40
2021,04,19,16,10,16.40
2021,04,19,16,11,16.50
2021,04,19,16,12,16.60
2021,04,19,16,13,16.70
2021,04,19,16,14,16.80
2021,04,19,16,15,16.90
2021,04,19,16,16,16.90
2021,04,19,16,17,16.70
2021,04,19,16,18,16.70
2021,04,19,16,19,16.60
2021,04,19,16,20,16.50
2021,04,19,16,21,16.40
2021,04,19,16,22,16.40
2021,04,19,16,23,16.30
2021,04,19,16,24,16.30
2021,04,19,16,25,16.40
2021,04,19,16,26,16.50
2021,04,19,16,27,16.50
2021,04,19,16,28,16.60
2021,04,19,16,29,16.70
2021,04,19,16,30,16.80
2021,04,19,16,31,16.90
2021,04,19,16,32,16.90
2021,04,19,16,33,16.80
2021,04,19,16,34,16.80
2021,04,19,16,35,16.70
2021,04,19,16,36,16.70
2021,04,19,16,37,16.70
2021,04,19,16,38,16.60
2021,04,19,16,39,16.60
2021,04,19,16,40,16.60
2021,04,19,16,41,16.60
2021,04,19,16,42,16.50
2021,04,19,16,43,16.50
2021,04,19,16,44,16.50
2021,04,19,16,45,16.50
2021,04,19,16,46,16.60
2021,04,19,16,47,16.60
2021,04,19,16,48,16.50
2021,04,19,16,49,16.50
2021,04,19,16,50,16.50
2021,04,19,16,51,16.50
2021,04,19,16,52,16.50
2021,04,19,16,53,16.40
2021,04,19,16,54,16.20
2021,04,19,16,55,16.10
2021,04,19,16,56,16.00
2021,04,19,16,57,16.10
2021,04,19,16,58,16.20
2021,04,19,16,59,16.30
2021,04,19,17,00,16.40
2021,04,19,17,01,16.40
2021,04,19,17,02,16.40
2021,04,19,17,03,16.40
2021,04,19,17,04,16.40
2021,04,19,17,05,16.40
2021,04,19,17,06,16.40
2021,04,19,17,07,16.50
2021,04,19,17,08,16.50
2021,04,19,17,09,16.60
2021,04,19,17,10,16.60
2021,04,19,17,11,16.70
2021,04,19,17,12,16.80
2021,04,19,17,13,17.00
2021,04,19,17,14,17.10
2021,04,19,17,15,17.20
2021,04,19,17,16,17.30
2021,04,19,17,17,17.20
2021,04,19,17,18,17.10
2021,04,19,17,19,17.00
2021,04,19,17,20,17.00
2021,04,19,17,21,16.90
2021,04,19,17,22,16.90
2021,04,19,17,23,16.90
2021,04,19,17,24,16.90
2021,04,19,17,25,16.90
2021,04,19,17,26,16.90
2021,04,19,17,27,17.00
2021,04,19,17,28,17.00
2021,04,19,17,29,17.00
2021,04,19,17,30,17.00
2021,04,19,17,31,16.90
2021,04,19,17,32,16.90
2021,04,19,17,33,16.80